Location: Bauerbach
(50.4985°N, 10.3912°E)
Time: 09:42:11
(UTC+00:00)

USA 307 - Pass Details

Date: 13 January 2026
Orbit: 495 x 502 km, 54.0° (Epoch: 10 March)

Event Time Altitude Azimuth Distance (km) Brightness Sun altitude
Exits shadow 04:30:52 38° 43° (NE) 784 3.8 -25.2°
Drops below altitude 10° 04:33:43 10° 72° (ENE) 1,711 6.2 -24.8°
Sets 04:35:58 0° 78° (ENE) 2,558 7.5 -24.4°
